Vertical_Velocity
0 -2 -1 -1 -1 -1 -1 -1 -1 1 1 -7 1 0 2 1 -0 0 0 1 1 -1 -1 -1 -1 -0 -3 1 2 -1 2 9 -12 -2 2 -4 1 -2 4 -2 3 0 3 3
-4 -0 1 -1 -1 -2 -0 -1 2 3 0 -6 0 3 2 -0 1 0 1 1 1 -0 -1 1 3 4 4 3 1 3 -1 -4 -5 -4 -10 -3 -1 4 2 4 4 2 0 4
-2 1 -0 -2 -0 -4 0 -2 0 -3 1 0 -1 1 -1 1 -1 0 1 2 2 -0 -1 -1 -2 -2 -5 -3 2 -2 -3 -4 -5 1 7 5 3 1 2 2 2 4 4 1
0 -0 -1 -0 -0 -2 -1 -0 -1 -1 -1 0 3 1 0 1 1 0 2 3 2 1 2 -1 -1 -1 5 -12 -3 -5 -1 -2 2 2 4 7 6 7 4 3 -0 -2 -2 -4
-0 -0 -0 -2 0 -1 -1 -1 -1 -0 -1 -1 1 1 3 0 2 1 1 1 2 1 3 3 2 1 1 1 -1 2 1 3 4 3 5 2 1 -1 -2 -3 -3 -2 -2 -2
0 0 -2 -0 0 -0 -1 -3 -2 -1 -1 -0 0 3 -0 -2 -9 2 2 1 -0 1 2 3 3 0 0 2 1 1 4 4 -0 1 -1 -3 -3 -1 -1 -2 -2 -1 -1 -2
-2 -1 -1 -0 -1 0 -1 -2 -1 -1 -1 -2 0 2 -4 -2 -1 -8 -5 -1 -0 2 2 2 2 3 3 2 5 4 2 -2 -1 -3 -4 -5 -2 -1 -1 -2 -4 -4 -3 -3
-2 -1 -1 -2 -0 -3 1 -2 -5 -3 -1 -1 0 -2 -1 -1 -1 -0 2 2 1 0 1 1 1 1 1 2 2 2 3 3 3 -3 -4 -3 -2 -11 -5 -3 -2 -2 -1 0
-1 -0 -1 -1 -0 -0 1 -1 -0 -4 0 1 -2 -3 2 0 2 3 1 1 -1 -0 1 0 1 0 0 1 0 0 2 -3 -3 -0 -7 -3 -4 -3 -2 -1 0 -0 -0 -3
-1 -2 -0 0 0 1 -2 -2 1 -1 -1 -0 -1 -1 -5 0 0 1 3 -1 -0 1 0 0 2 1 2 4 3 -3 -4 -1 -1 -8 -2 -3 -0 3 2 0 -2 -2 -2 -2
-1 -6 -4 0 -1 -2 2 1 -2 -4 -1 -2 -0 -5 -3 -4 -4 -4 -3 -2 -2 -0 -1 0 0 1 2 2 2 3 4 -11 -0 -1 -0 2 1 -4 -5 -2 -0 -2 -5 -4
-0 -3 -1 -1 -0 0 -1 -1 -2 -4 1 0 -0 -9 -0 -0 -2 0 -1 0 0 1 0 1 0 1 1 1 -1 2 6 1 -4 1 1 1 -2 -5 -3 -3 -3 -1 -2 -1
-4 -1 -1 -4 -4 -1 0 1 -0 -1 -1 -2 -2 -6 -0 -0 0 -1 -0 -0 1 1 2 1 1 0 1 1 0 1 2 -6 0 -1 2 -1 -3 -5 -2 2 2 -1 -3 -2
-3 -0 -4 -8 -5 -2 1 1 0 -2 -1 -1 -5 -2 -2 -1 -1 -0 -1 -0 0 1 -1 -1 1 1 2 3 -7 1 -6 -2 -0 1 -1 -3 -3 -1 2 1 0 -1 -1 -1
-3 -2 -1 0 0 0 -0 -1 0 1 -2 -4 -4 -1 -3 -4 -4 -3 0 1 0 -1 -0 -0 1 1 -1 -2 -1 -11 0 2 2 -2 -3 -2 0 1 3 2 -0 -2 -2 -1
-0 -0 -0 0 0 -0 0 -0 0 -0 -0 1 1 -7 -4 1 1 0 -3 -1 -1 -0 -1 -1 0 -2 -4 -2 -8 3 1 3 -2 -3 -1 0 1 0 3 -1 -3 -1 -2 -1
-1 -2 -1 -2 0 -1 -5 -6 -2 -1 0 -4 -1 -13 -0 1 -0 -2 1 -1 -3 -4 -3 -2 -3 -1 0 -3 -0 1 3 -1 -2 0 1 1 -0 -1 -2 -2 -1 0 -2 -1
-1 -1 -1 -1 -2 -4 -11 -0 -1 -2 -2 0 0 -0 -2 -1 -1 -1 -2 -3 -3 -2 -2 -1 1 1 1 -1 -0 3 -1 -0 -1 -1 -0 -0 -2 -2 1 -2 -2 -0 -0 1
-1 -2 -1 -2 -1 -8 -3 0 -2 -4 -8 -2 -2 -0 0 -1 -1 -3 -3 -2 -1 -4 2 2 2 0 -1 0 -0 1 1 -3 -1 0 -1 -2 -1 -2 -3 -1 0 -0 -1 0
-1 -2 -5 0 -1 -2 -8 -1 0 -1 -7 0 1 -0 -2 0 0 -5 -4 -3 -1 2 2 3 3 3 -1 -3 -0 -0 -2 -2 -2 -4 -4 -2 -3 -2 -1 2 2 -2 -1 -0
-1 -1 -2 0 -1 -8 -3 -1 0 -4 -16 -1 -1 -2 -2 -2 -11 -0 -1 3 11 11 10 7 6 4 -1 -2 -1 -1 -2 -2 -1 -3 -3 -0 1 -1 1 -2 -1 -3 -1 -1
-4 -4 -1 0 0 -7 -1 1 -3 -9 -1 -0 -1 -2 -4 -0 1 -0 -1 -1 -4 -4 -5 -11 -10 -3 -1 -2 -1 -2 -1 -1 -1 -2 0 4 -1 -1 -0 1 1 -0 -1 -0
-3 -6 -5 -7 -10 -3 -4 -2 1 0 -1 0 -0 7 8 6 2 1 1 6 8 7 -1 3 7 0 -1 -2 -2 0 1 -2 -2 0 3 -1 -3 -2 -1 1 -1 0 -1 1
-1 -0 0 -2 -3 -4 -3 -2 -4 4 -3 2 0 0 3 -1 3 3 5 7 15 13 5 0 -0 -3 1 0 -1 -1 -1 -2 0 -0 0 -2 0 -3 -2 0 0 -0 -0 0
-4 -0 -2 -3 -5 -0 -2 -0 2 -2 -1 -2 3 1 1 5 3 3 2 -1 -5 -15 1 -4 -5 1 -2 -1 -0 -1 -1 -1 -2 1 -4 0 1 -6 -2 -0 0 -1 -1 -0
-3 -6 -4 -8 -5 1 -6 1 2 -1 -1 1 0 -1 1 1 2 1 2 -3 -4 -4 1 -3 0 -0 1 0 -0 -1 -2 -2 -0 -3 -5 -0 -2 -2 -0 -0 -2 -2 -2 -1
Height
1503 1506 1510 1509 1509 1510 1513 1518 1523 1529 1531 1533 1544 1544 1544 1543 1542 1544 1545 1547 1549 1551 1553 1554 1556 1558 1559 1562 1564 1566 1569 1570 1573 1576 1576 1579 1582 1583 1582 1581 1581 1581 1580 1578
1503 1509 1507 1508 1509 1511 1516 1521 1529 1533 1533 1533 1542 1545 1547 1546 1546 1546 1546 1546 1547 1549 1550 1552 1554 1556 1558 1560 1562 1566 1568 1570 1573 1575 1578 1579 1581 1580 1579 1579 1578 1577 1577 1575
1506 1509 1508 1509 1514 1514 1523 1521 1526 1528 1533 1535 1537 1542 1545 1548 1548 1547 1547 1547 1548 1549 1550 1552 1554 1556 1558 1561 1563 1566 1569 1570 1573 1576 1578 1578 1578 1577 1577 1576 1575 1575 1573 1571
1510 1510 1511 1514 1516 1518 1523 1520 1524 1529 1529 1534 1538 1534 1546 1548 1549 1550 1549 1549 1549 1550 1552 1553 1555 1556 1556 1559 1563 1566 1568 1570 1573 1575 1576 1576 1576 1575 1574 1573 1572 1571 1569 1568
1515 1512 1514 1516 1518 1516 1523 1521 1524 1529 1531 1535 1538 1536 1544 1548 1549 1549 1550 1551 1551 1552 1554 1555 1556 1558 1559 1560 1564 1567 1568 1570 1571 1573 1573 1574 1573 1572 1571 1570 1569 1568 1566 1564
1512 1513 1513 1516 1518 1516 1520 1524 1529 1534 1535 1541 1540 1538 1538 1542 1537 1544 1548 1549 1551 1552 1554 1555 1557 1559 1560 1562 1564 1566 1568 1568 1569 1570 1570 1571 1571 1570 1569 1568 1567 1565 1562 1560
1516 1516 1515 1515 1517 1520 1520 1525 1540 1542 1543 1542 1544 1544 1525 1530 1533 1536 1541 1545 1548 1551 1552 1554 1557 1559 1561 1562 1563 1565 1566 1567 1568 1568 1568 1569 1569 1569 1567 1566 1564 1561 1558 1555
1522 1527 1517 1515 1516 1519 1525 1525 1537 1547 1548 1542 1543 1536 1522 1529 1530 1533 1538 1543 1546 1549 1551 1554 1557 1559 1560 1562 1563 1564 1565 1565 1565 1565 1566 1567 1566 1566 1564 1562 1560 1557 1553 1549
1522 1524 1517 1517 1516 1519 1527 1531 1534 1547 1563 1551 1538 1532 1525 1528 1530 1533 1537 1541 1544 1546 1549 1552 1555 1557 1559 1561 1562 1564 1564 1564 1564 1564 1563 1564 1563 1563 1560 1558 1555 1551 1548 1544
1516 1525 1521 1518 1519 1521 1520 1529 1535 1540 1550 1548 1539 1538 1522 1527 1527 1531 1535 1536 1540 1544 1547 1550 1553 1555 1558 1559 1560 1562 1561 1560 1558 1561 1561 1561 1560 1558 1556 1553 1550 1547 1543 1539
1512 1517 1524 1520 1522 1521 1526 1529 1538 1540 1548 1545 1549 1527 1520 1518 1520 1523 1527 1531 1534 1539 1543 1547 1551 1554 1556 1558 1559 1559 1558 1560 1559 1559 1559 1558 1557 1555 1552 1548 1545 1542 1539 1535
1513 1520 1527 1523 1521 1521 1521 1525 1529 1537 1545 1556 1552 1528 1520 1520 1520 1522 1524 1528 1533 1537 1541 1545 1548 1552 1554 1555 1557 1557 1558 1557 1557 1557 1557 1555 1553 1551 1548 1544 1541 1538 1534 1529
1511 1522 1530 1526 1524 1521 1521 1525 1532 1538 1543 1544 1543 1523 1519 1520 1519 1520 1523 1526 1529 1533 1537 1542 1546 1549 1551 1552 1554 1556 1556 1554 1554 1554 1553 1551 1549 1546 1543 1540 1537 1533 1529 1524
1509 1520 1518 1522 1519 1521 1523 1524 1528 1527 1537 1537 1531 1519 1517 1516 1518 1518 1519 1522 1525 1529 1534 1539 1543 1546 1548 1549 1552 1552 1551 1551 1552 1551 1549 1547 1544 1541 1539 1536 1532 1528 1524 1519
1510 1516 1521 1525 1525 1523 1520 1521 1525 1524 1524 1524 1518 1521 1511 1510 1511 1514 1517 1520 1523 1527 1531 1535 1539 1541 1543 1546 1548 1547 1547 1549 1548 1547 1545 1542 1539 1537 1534 1531 1527 1523 1519 1515
1513 1520 1522 1525 1527 1527 1522 1520 1521 1522 1523 1520 1520 1513 1506 1507 1509 1511 1513 1516 1519 1522 1527 1531 1534 1537 1540 1541 1541 1542 1544 1544 1544 1542 1540 1537 1534 1531 1529 1525 1522 1517 1514 1511
1515 1521 1525 1526 1531 1528 1528 1511 1510 1512 1511 1507 1513 1497 1504 1505 1506 1505 1507 1510 1513 1517 1523 1526 1530 1532 1534 1535 1537 1538 1539 1540 1539 1536 1534 1531 1528 1526 1523 1520 1516 1512 1509 1506
1517 1523 1534 1530 1537 1528 1502 1503 1504 1504 1502 1501 1499 1498 1499 1500 1501 1501 1502 1505 1508 1514 1519 1522 1525 1528 1530 1531 1533 1534 1535 1535 1533 1531 1528 1525 1522 1520 1517 1514 1511 1508 1503 1501
1514 1521 1536 1528 1529 1516 1495 1500 1502 1502 1492 1490 1492 1495 1498 1500 1501 1499 1499 1501 1505 1510 1514 1518 1521 1523 1525 1528 1530 1530 1530 1529 1527 1524 1522 1520 1518 1514 1511 1509 1505 1503 1499 1497
1518 1519 1521 1540 1526 1521 1498 1496 1496 1497 1500 1486 1487 1491 1495 1499 1501 1494 1494 1497 1502 1507 1511 1513 1516 1518 1520 1524 1525 1525 1524 1522 1520 1518 1516 1513 1511 1508 1505 1503 1500 1497 1495 1493
1526 1530 1525 1543 1523 1514 1497 1498 1498 1504 1498 1486 1486 1488 1492 1495 1491 1491 1491 1495 1500 1504 1508 1511 1513 1515 1518 1520 1520 1519 1518 1516 1514 1512 1510 1507 1504 1501 1498 1497 1495 1492 1490 1488
1512 1521 1525 1539 1530 1513 1495 1498 1500 1491 1486 1485 1485 1485 1485 1486 1486 1488 1490 1492 1496 1499 1501 1506 1512 1513 1514 1515 1515 1514 1512 1510 1508 1506 1503 1500 1497 1495 1492 1491 1489 1487 1485 1483
1511 1505 1506 1509 1500 1492 1492 1489 1488 1487 1486 1485 1485 1484 1484 1483 1482 1484 1486 1488 1491 1493 1499 1504 1506 1509 1510 1510 1509 1508 1506 1505 1503 1501 1497 1494 1491 1488 1487 1485 1483 1481 1480 1479
1502 1502 1503 1503 1488 1487 1487 1487 1486 1485 1484 1483 1483 1483 1482 1481 1482 1484 1485 1489 1490 1493 1496 1499 1503 1507 1507 1505 1503 1501 1500 1499 1497 1495 1492 1489 1486 1482 1481 1479 1477 1476 1475 1474
1496 1499 1498 1497 1487 1484 1482 1482 1482 1481 1480 1478 1477 1476 1476 1476 1476 1478 1480 1484 1490 1495 1495 1498 1502 1501 1502 1500 1498 1496 1494 1492 1490 1488 1487 1485 1481 1479 1475 1473 1472 1471 1471 1470
1489 1487 1492 1487 1479 1481 1479 1479 1478 1476 1475 1474 1472 1471 1471 1471 1472 1475 1478 1482 1484 1492 1496 1497 1497 1498 1497 1495 1494 1491 1489 1486 1484 1481 1482 1480 1476 1474 1472 1469 1468 1467 1466 1465